Epoch 2009 May 9.0 TT = JDT 2454960.5
T 2009 May 11.22308 TT MPC
q 1.7691249 (2000.0) P Q
n 0.13500853 Peri. 340.94750 +0.74470417 -0.35881004
a 3.7632400 Node 54.07108 +0.66610130 +0.34712888
e 0.5298932 Incl. 44.02350 +0.04153018 +0.86646229
P 7.30